FW6002 Weather Reports


Display with metric or nautical units.
time (UTC)temp
F
wind
direction
speed
MPH
gust
MPH
rain 1hr
in
rain 24hr
in
rain mn
in
humidity
%
barometer
mb
20260903205555 95 143 2.0 9.0 0.00 0.00 0.00 61 1010.2
20260903205054 94 89 2.0 8.0 0.00 0.00 0.00 61 1010.2
20260903204608 95 346 3.0 8.0 0.00 0.00 0.00 61 1010.3
20260903204054 95 59 3.0 10.0 0.00 0.00 0.00 61 1010.5
20260903203600 94 67 3.0 10.0 0.00 0.00 0.00 61 1010.2
20260903203106 95 203 1.0 8.0 0.00 0.00 0.00 61 1010.5
20260903202557 95 49 2.0 8.0 0.00 0.00 0.00 62 1010.6
20260903202054 95 47 2.0 9.0 0.00 0.00 0.00 62 1010.7
20260903201607 94 277 3.0 9.0 0.00 0.00 0.00 62 1010.8
20260903201054 94 71 3.0 13.0 0.00 0.00 0.00 62 1010.9
20260903200555 94 99 3.0 13.0 0.00 0.00 0.00 61 1010.7
20260903200104 94 98 3.0 11.0 0.00 0.00 0.00 62 1011.0
20260903195557 94 352 3.0 9.0 0.00 0.00 0.00 62 1010.9
20260903195054 94 46 3.0 10.0 0.00 0.00 0.00 63 1011.1
20260903194602 94 55 3.0 10.0 0.00 0.00 0.00 63 1011.1
20260903194055 93 106 4.0 10.0 0.00 0.00 0.00 64 1011.2
20260903193554 93 143 3.0 8.0 0.00 0.00 0.00 64 1011.2
20260903193059 93 203 3.0 8.0 0.00 0.00 0.00 64 1011.3
20260903192554 92 54 3.0 9.0 0.00 0.00 0.00 65 1011.3
20260903192054 92 36 3.0 9.0 0.00 0.00 0.00 66 1011.5
20260903191606 91 146 2.0 8.0 0.00 0.00 0.00 67 1011.4
20260903191055 90 91 3.0 8.0 0.00 0.00 0.00 69 1011.5
20260903190555 90 11 3.0 8.0 0.00 0.00 0.00 68 1011.7
20260903190107 90 115 2.0 6.0 0.00 0.00 0.00 68 1011.8
20260903185554 90 182 2.0 6.0 0.00 0.00 0.00 69 1011.8
20260903185054 90 68 1.0 6.0 0.00 0.00 0.00 69 1012.0
20260903184604 89 164 1.0 6.0 0.00 0.00 0.00 69 1012.1
20260903184058 89 147 2.0 6.0 0.00 0.00 0.00 70 1012.2
20260903183555 89 186 2.0 6.0 0.00 0.00 0.00 70 1012.2
20260903183106 89 149 2.0 7.0 0.00 0.00 0.00 70 1012.3
20260903182554 89 150 2.0 8.0 0.00 0.00 0.00 70 1012.4
20260903182054 89 38 2.0 8.0 0.00 0.00 0.00 69 1012.3
20260903181604 89 49 2.0 9.0 0.00 0.00 0.00 68 1012.4
20260903181057 90 137 2.0 9.0 0.00 0.00 0.00 67 1012.5
20260903180555 90 211 2.0 8.0 0.00 0.00 0.00 67 1012.5
20260903175554 90 147 3.0 8.0 0.00 0.00 0.00 67 1012.7
20260903175054 91 360 1.0 9.0 0.00 0.00 0.00 66 1012.7
20260903174601 91 134 2.0 9.0 0.00 0.00 0.00 65 1012.7
20260903174054 91 98 2.0 9.0 0.00 0.00 0.00 65 1012.7
20260903173554 91 109 2.0 6.0 0.00 0.00 0.00 65 1012.9
20260903173109 91 129 2.0 6.0 0.00 0.00 0.00 64 1012.9
20260903172554 90 202 2.0 6.0 0.00 0.00 0.00 65 1013.0
20260903172057 90 171 1.0 6.0 0.00 0.00 0.00 65 1013.0
20260903171611 90 259 2.0 6.0 0.00 0.00 0.00 65 1013.0
20260903171056 90 0 1.0 6.0 0.00 0.00 0.00 65 1013.1
20260903170557 90 130 1.0 5.0 0.00 0.00 0.00 66 1013.0
20260903170110 89 71 2.0 5.0 0.00 0.00 0.00 65 1013.0
20260903165554 89 100 2.0 5.0 0.00 0.00 0.00 66 1013.0
20260903165054 90 63 1.0 5.0 0.00 0.00 0.00 66 1013.0
20260903164608 89 34 1.0 6.0 0.00 0.00 0.00 67 1013.2
20260903164055 88 82 2.0 6.0 0.00 0.00 0.00 69 1013.3
20260903163556 89 51 1.0 4.0 0.00 0.00 0.00 68 1013.2
20260903163114 88 275 1.0 4.0 0.00 0.00 0.00 69 1013.2
20260903162558 89 68 1.0 5.0 0.00 0.00 0.00 68 1013.4
20260903162057 88 168 1.0 5.0 0.00 0.00 0.00 69 1013.4
20260903161612 87 230 1.0 5.0 0.00 0.00 0.00 70 1013.5
20260903161056 87 202 1.0 7.0 0.00 0.00 0.00 69 1013.4
20260903160557 88 184 1.0 7.0 0.00 0.00 0.00 70 1013.3
20260903160108 87 24 1.0 4.0 0.00 0.00 0.00 70 1013.1
20260903155556 87 206 1.0 4.0 0.00 0.00 0.00 71 1013.2
20260903155058 87 0 1.0 6.0 0.00 0.00 0.00 71 1013.3
20260903154608 86 58 1.0 7.0 0.00 0.00 0.00 71 1013.3
20260903154057 86 104 2.0 7.0 0.00 0.00 0.00 72 1013.2
20260903153557 85 70 1.0 5.0 0.00 0.00 0.00 73 1013.2
20260903153104 85 241 2.0 5.0 0.00 0.00 0.00 73 1013.3
20260903152555 85 74 2.0 5.0 0.00 0.00 0.00 73 1013.1
20260903152051 85 53 0.0 4.0 0.00 0.00 0.00 74 1013.0
20260903151604 85 107 1.0 4.0 0.00 0.00 0.00 74 1013.0
20260903151055 85 0 1.0 4.0 0.00 0.00 0.00 74 1013.0
20260903150555 85 36 1.0 5.0 0.00 0.00 0.00 74 1013.2
20260903150118 85 49 1.0 7.0 0.00 0.00 0.00 73 1013.0
20260903145552 85 0 2.0 7.0 0.00 0.00 0.00 73 1013.1
20260903145052 85 232 1.0 6.0 0.00 0.00 0.00 73 1013.0
20260903144603 85 69 2.0 6.0 0.00 0.00 0.00 73 1013.1
20260903144053 85 128 1.0 5.0 0.00 0.00 0.00 75 1012.9
20260903143552 84 63 1.0 4.0 0.00 0.00 0.00 75 1012.9
20260903143104 84 159 1.0 3.0 0.00 0.00 0.00 76 1012.9
20260903142552 83 60 1.0 4.0 0.00 0.00 0.00 77 1013.0
20260903142059 83 69 2.0 4.0 0.00 0.00 0.00 76 1012.9
20260903141605 84 49 1.0 4.0 0.00 0.00 0.00 77 1012.9
20260903141058 83 243 1.0 4.0 0.00 0.00 0.00 78 1013.1
20260903140552 82 76 0.0 5.0 0.00 0.00 0.00 80 1013.0
20260903140106 81 0 1.0 5.0 0.00 0.00 0.00 81 1013.0
20260903135555 80 50 1.0 7.0 0.00 0.00 0.00 81 1013.1
20260903135052 80 130 1.0 7.0 0.00 0.00 0.00 81 1013.0
20260903134559 80 18 2.0 6.0 0.00 0.00 0.00 80 1013.1
20260903134053 80 228 1.0 5.0 0.00 0.00 0.00 82 1013.1
20260903133552 79 57 1.0 3.0 0.00 0.00 0.00 83 1013.0
20260903133102 79 57 1.0 3.0 0.00 0.00 0.00 84 1012.9
20260903132552 78 53 1.0 3.0 0.00 0.00 0.00 84 1013.0
20260903132055 78 173 1.0 3.0 0.00 0.00 0.00 84 1013.0
20260903131605 78 36 1.0 4.0 0.00 0.00 0.00 85 1013.1
20260903131054 77 0 0.0 4.0 0.00 0.00 0.00 86 1013.0
20260903130554 77 248 0.0 2.0 0.00 0.00 0.00 86 1013.0
20260903130111 76 0 0.0 2.0 0.00 0.00 0.00 87 1013.0
20260903125555 76 213 0.0 2.0 0.00 0.00 0.00 87 1012.9
20260903125056 76 0 0.0 2.0 0.00 0.00 0.00 87 1012.9
20260903124605 76 0 0.0 3.0 0.00 0.00 0.00 87 1013.0
20260903124054 75 0 0.0 3.0 0.00 0.00 0.00 88 1013.0
20260903123554 75 0 0.0 1.0 0.00 0.00 0.00 88 1013.0
20260903123100 75 0 0.0 1.0 0.00 0.00 0.00 87 1013.0
20260903122629 75 0 0.0 1.0 0.00 0.00 0.00 87 1012.8
20260903122055 75 185 0.0 1.0 0.00 0.00 0.00 87 1012.8
20260903121601 75 0 0.0 1.0 0.00 0.00 0.00 87 1012.7
20260903121055 75 0 0.0 1.0 0.00 0.00 0.00 87 1012.7
20260903120555 75 172 0.0 2.0 0.00 0.00 0.00 87 1012.6
20260903115555 75 0 0.0 2.0 0.00 0.00 0.00 87 1012.7
20260903115054 75 169 0.0 2.0 0.00 0.00 0.00 87 1012.7
20260903114618 75 173 0.0 1.0 0.00 0.00 0.00 87 1012.5
20260903114055 75 0 0.0 2.0 0.00 0.00 0.00 87 1012.3
20260903113555 75 0 0.0 2.0 0.00 0.00 0.00 86 1012.3
20260903113106 75 187 0.0 2.0 0.00 0.00 0.00 86 1012.3
20260903112555 75 0 0.0 1.0 0.00 0.00 0.00 86 1012.2
20260903112055 75 0 0.0 2.0 0.00 0.00 0.00 86 1012.3
20260903111617 75 0 0.0 2.0 0.00 0.00 0.00 86 1012.3
20260903111058 75 0 0.0 1.0 0.00 0.00 0.00 86 1012.3
20260903110555 75 0 0.0 1.0 0.00 0.00 0.00 86 1012.3
20260903105557 75 162 0.0 2.0 0.00 0.00 0.00 85 1012.3
20260903105057 75 162 0.0 2.0 0.00 0.00 0.00 85 1012.2
20260903104620 75 0 0.0 2.0 0.00 0.00 0.00 85 1012.1
20260903104055 75 0 0.0 2.0 0.00 0.00 0.00 85 1012.2
20260903103553 75 0 0.0 2.0 0.00 0.00 0.00 85 1012.2
20260903103122 75 0 0.0 1.0 0.00 0.00 0.00 85 1012.2
20260903102555 75 0 0.0 1.0 0.00 0.00 0.00 85 1012.2
20260903102055 75 0 0.0 2.0 0.00 0.00 0.00 85 1012.3
20260903101607 75 0 0.0 2.0 0.00 0.00 0.00 85 1012.3
20260903101055 75 0 0.0 2.0 0.00 0.00 0.00 85 1012.1
20260903100600 75 0 0.0 3.0 0.00 0.00 0.00 85 1012.2
20260903095554 75 172 0.0 2.0 0.00 0.00 0.00 85 1012.1
20260903095056 75 0 0.0 1.0 0.00 0.00 0.00 85 1012.2
20260903094608 75 0 0.0 1.0 0.00 0.00 0.00 85 1011.9
20260903094056 75 0 0.0 0.0 0.00 0.00 0.00 85 1012.0
20260903093555 74 0 0.0 0.0 0.00 0.00 0.00 85 1011.9
20260903093129 75 0 0.0 0.0 0.00 0.00 0.00 84 1011.9
20260903092555 75 0 0.0 0.0 0.00 0.00 0.00 84 1011.9
20260903092055 75 0 0.0 0.0 0.00 0.00 0.00 84 1012.0
20260903091604 75 0 0.0 0.0 0.00 0.00 0.00 84 1012.1
20260903091054 75 0 0.0 0.0 0.00 0.00 0.00 84 1012.0
20260903090557 75 0 0.0 0.0 0.00 0.00 0.00 83 1012.2
20260903090108 75 0 0.0 0.0 0.00 0.00 0.00 83 1012.1
20260903085555 75 0 0.0 0.0 0.00 0.00 0.00 83 1012.2
20260903085056 75 0 0.0 0.0 0.00 0.00 0.00 83 1012.2
20260903084603 75 0 0.0 0.0 0.00 0.00 0.00 82 1012.2
20260903084056 76 0 0.0 0.0 0.00 0.00 0.00 82 1012.3
20260903083557 76 0 0.0 0.0 0.00 0.00 0.00 82 1012.2
20260903083109 76 0 0.0 0.0 0.00 0.00 0.00 82 1012.4
20260903082555 76 0 0.0 0.0 0.00 0.00 0.00 81 1012.3
20260903082055 76 0 0.0 0.0 0.00 0.00 0.00 82 1012.4
20260903081602 76 0 0.0 0.0 0.00 0.00 0.00 81 1012.3
20260903081056 76 0 0.0 0.0 0.00 0.00 0.00 81 1012.2
20260903080559 76 0 0.0 0.0 0.00 0.00 0.00 81 1012.5
20260903080104 76 0 0.0 0.0 0.00 0.00 0.00 81 1012.5
20260903075555 77 0 0.0 0.0 0.00 0.00 0.00 81 1012.4
20260903075059 77 0 0.0 0.0 0.00 0.00 0.00 80 1012.7
20260903074611 77 0 0.0 0.0 0.00 0.00 0.00 80 1012.8
20260903074056 77 0 0.0 0.0 0.00 0.00 0.00 79 1012.8
20260903073559 78 0 0.0 0.0 0.00 0.00 0.00 79 1012.6
20260903073107 78 0 0.0 0.0 0.00 0.00 0.00 78 1012.7
20260903072556 78 0 0.0 1.0 0.00 0.00 0.00 78 1012.4
20260903072055 79 0 0.0 2.0 0.00 0.00 0.00 77 1012.7
20260903071632 79 0 0.0 2.0 0.00 0.00 0.00 77 1012.9
20260903071054 79 0 0.0 1.0 0.00 0.00 0.00 77 1012.8
20260903070554 79 0 0.0 2.0 0.00 0.00 0.00 77 1012.8
20260903070108 79 0 0.0 2.0 0.00 0.00 0.00 77 1012.9
20260903065556 79 0 0.0 2.0 0.00 0.00 0.00 77 1012.8
20260903065054 80 0 0.0 2.0 0.00 0.00 0.00 76 1013.0
20260903064608 80 0 0.0 2.0 0.00 0.00 0.00 76 1013.0
20260903064054 80 223 0.0 3.0 0.00 0.00 0.00 76 1013.0
20260903063555 80 152 0.0 3.0 0.00 0.00 0.00 76 1012.9
20260903063107 80 135 0.0 2.0 0.00 0.00 0.00 75 1013.0
20260903062557 80 177 0.0 2.0 0.00 0.00 0.00 75 1013.0
20260903062056 80 166 0.0 3.0 0.00 0.00 0.00 75 1013.0
20260903061611 80 186 0.0 3.0 0.00 0.00 0.00 74 1012.8
20260903061054 81 197 0.0 3.0 0.00 0.00 0.00 74 1013.0
20260903060555 81 0 0.0 4.0 0.00 0.00 0.00 74 1013.0
20260903060109 81 114 0.0 4.0 0.00 0.00 0.00 74 1013.2
20260903055555 81 0 0.0 4.0 0.00 0.00 0.00 73 1013.2
20260903055054 82 91 1.0 4.0 0.00 0.00 0.00 73 1013.3
20260903054607 82 202 1.0 3.0 0.00 0.00 0.00 72 1013.3
20260903054055 82 208 1.0 3.0 0.00 0.00 0.00 72 1013.2
20260903053558 82 0 0.0 4.0 0.00 0.00 0.00 71 1013.2
20260903053103 82 59 1.0 4.0 0.00 0.00 0.00 71 1013.3
20260903052555 82 92 1.0 5.0 0.00 0.00 0.00 71 1013.2
20260903052055 82 131 1.0 5.0 0.00 0.00 0.00 71 1013.2
20260903051601 83 80 1.0 4.0 0.00 0.00 0.00 71 1013.0
20260903051054 83 0 1.0 3.0 0.00 0.00 0.00 71 1012.9
20260903050554 83 86 1.0 3.0 0.00 0.00 0.00 71 1013.1
20260903050114 83 126 1.0 3.0 0.00 0.00 0.00 70 1013.0
20260903045555 83 88 1.0 5.0 0.00 0.00 0.00 70 1013.2
20260903045054 83 96 1.0 5.0 0.00 0.00 0.00 70 1013.0
20260903044606 83 60 1.0 5.0 0.00 0.00 0.00 69 1012.9
20260903044055 83 87 0.0 4.0 0.00 0.00 0.00 69 1013.1
20260903043555 83 0 0.0 4.0 0.00 0.00 0.00 69 1013.0
20260903043103 84 163 1.0 4.0 0.00 0.00 0.00 69 1013.1
20260903042555 84 0 0.0 4.0 0.00 0.00 0.00 68 1013.1
20260903042058 84 0 1.0 4.0 0.00 0.00 0.00 68 1013.2
20260903041612 84 156 0.0 4.0 0.00 0.00 0.00 68 1013.0
20260903041055 84 163 1.0 3.0 0.00 0.00 0.00 68 1013.0
20260903040554 84 64 0.0 3.0 0.00 0.00 0.00 68 1012.8
20260903040110 85 77 1.0 4.0 0.00 0.00 0.00 68 1012.8
20260903035554 85 136 1.0 4.0 0.00 0.00 0.00 68 1012.8
20260903035054 85 53 1.0 4.0 0.00 0.00 0.00 67 1012.9
20260903034609 85 168 1.0 2.0 0.00 0.00 0.00 67 1012.9
20260903034057 85 175 0.0 3.0 0.00 0.00 0.00 66 1012.8
20260903033555 85 183 0.0 4.0 0.00 0.00 0.00 66 1012.8
20260903033103 85 130 0.0 4.0 0.00 0.00 0.00 66 1012.7
20260903032555 85 0 0.0 2.0 0.00 0.00 0.00 65 1012.7
20260903032056 85 126 0.0 2.0 0.00 0.00 0.00 65 1012.7
20260903031600 85 0 0.0 2.0 0.00 0.00 0.00 64 1012.8
20260903031056 85 0 0.0 1.0 0.00 0.00 0.00 64 1012.8
20260903030556 86 0 0.0 1.0 0.00 0.00 0.00 64 1012.9
20260903030103 86 0 0.0 1.0 0.00 0.00 0.00 63 1012.8
20260903025556 86 0 0.0 3.0 0.00 0.00 0.00 63 1012.8
20260903025055 87 0 0.0 3.0 0.00 0.00 0.00 62 1012.8
20260903024601 87 82 0.0 2.0 0.00 0.00 0.00 63 1012.7
20260903024055 87 0 0.0 5.0 0.00 0.00 0.00 62 1012.6
20260903023555 87 0 0.0 5.0 0.00 0.00 0.00 62 1012.7
20260903023104 87 90 1.0 5.0 0.00 0.00 0.00 61 1012.5
20260903022558 88 189 1.0 4.0 0.00 0.00 0.00 60 1012.3
20260903022054 88 189 0.0 5.0 0.00 0.00 0.00 60 1012.2
20260903021611 88 0 1.0 5.0 0.00 0.00 0.00 59 1012.3
20260903021056 88 197 1.0 6.0 0.00 0.00 0.00 58 1012.2
20260903020557 88 107 1.0 6.0 0.00 0.00 0.00 58 1012.1
20260903015555 89 94 1.0 5.0 0.00 0.00 0.00 56 1011.8
20260903015055 89 173 1.0 5.0 0.00 0.00 0.00 56 1011.7
20260903014626 89 51 1.0 5.0 0.00 0.00 0.00 55 1011.6
20260903014058 90 94 1.0 5.0 0.00 0.00 0.00 55 1011.7
20260903013555 90 159 1.0 3.0 0.00 0.00 0.00 55 1011.8
20260903013109 90 34 1.0 6.0 0.00 0.00 0.00 54 1011.8
20260903012555 91 181 1.0 7.0 0.00 0.00 0.00 53 1011.8
20260903012054 91 180 2.0 7.0 0.00 0.00 0.00 53 1011.7
20260903011608 91 196 1.0 3.0 0.00 0.00 0.00 53 1011.7
20260903011055 92 126 1.0 4.0 0.00 0.00 0.00 52 1011.6
20260903010556 92 0 1.0 6.0 0.00 0.00 0.00 51 1011.5
20260903010106 93 185 1.0 6.0 0.00 0.00 0.00 49 1011.5
20260903005555 93 224 2.0 5.0 0.00 0.00 0.00 47 1011.4
20260903005056 94 0 0.0 3.0 0.00 0.00 0.00 45 1011.3
20260903004602 94 248 0.0 3.0 0.00 0.00 0.00 45 1011.3
20260903004056 94 217 0.0 3.0 0.00 0.00 0.00 45 1011.3
20260903003555 94 281 0.0 4.0 0.00 0.00 0.00 45 1011.2
20260903003119 95 213 0.0 4.0 0.00 0.00 0.00 44 1011.0
20260903002555 95 186 1.0 4.0 0.00 0.00 0.00 44 1010.9
20260903002055 95 218 0.0 5.0 0.00 0.00 0.00 43 1010.9
20260903001600 95 228 1.0 5.0 0.00 0.00 0.00 43 1011.0
20260903001054 96 147 1.0 5.0 0.00 0.00 0.00 42 1010.8
20260903000556 96 157 1.0 5.0 0.00 0.00 0.00 42 1010.8
20260903000108 96 0 0.0 4.0 0.00 0.00 0.00 42 1010.7
20260902235556 96 201 1.0 4.0 0.00 0.00 0.00 42 1010.8
20260902235059 96 265 1.0 4.0 0.00 0.00 0.00 42 1010.8
20260902234607 96 243 1.0 5.0 0.00 0.00 0.00 43 1010.7
20260902234058 97 196 1.0 5.0 0.00 0.00 0.00 42 1010.9
20260902233556 97 287 2.0 5.0 0.00 0.00 0.00 42 1011.0
20260902233102 97 200 1.0 4.0 0.00 0.00 0.00 42 1010.9
20260902232555 97 201 1.0 4.0 0.00 0.00 0.00 42 1010.9
20260902232055 97 205 1.0 4.0 0.00 0.00 0.00 42 1010.8
20260902231604 97 245 1.0 6.0 0.00 0.00 0.00 42 1010.9
20260902231055 97 278 1.0 6.0 0.00 0.00 0.00 42 1011.0
20260902230554 97 192 1.0 3.0 0.00 0.00 0.00 41 1011.0
20260902230122 97 252 0.0 6.0 0.00 0.00 0.00 42 1011.1
20260902225559 98 47 0.0 6.0 0.00 0.00 0.00 42 1011.0
20260902225054 98 202 2.0 6.0 0.00 0.00 0.00 41 1010.9
20260902224614 98 177 1.0 8.0 0.00 0.00 0.00 41 1010.9
20260902224056 98 223 1.0 8.0 0.00 0.00 0.00 42 1010.8
20260902223559 98 296 1.0 5.0 0.00 0.00 0.00 41 1010.8
20260902223114 98 238 2.0 5.0 0.00 0.00 0.00 40 1010.7
20260902222555 99 0 1.0 5.0 0.00 0.00 0.00 40 1011.0
20260902222054 99 0 0.0 5.0 0.00 0.00 0.00 41 1010.8
20260902221609 99 199 0.0 7.0 0.00 0.00 0.00 40 1011.0
20260902221100 99 213 1.0 7.0 0.00 0.00 0.00 40 1010.8
20260902220557 98 190 2.0 7.0 0.00 0.00 0.00 40 1011.0
20260902220100 99 238 1.0 6.0 0.00 0.00 0.00 40 1011.0
20260902215556 100 197 1.0 6.0 0.00 0.00 0.00 40 1011.1
20260902215054 100 249 0.0 5.0 0.00 0.00 0.00 39 1011.1
20260902214625 100 0 1.0 5.0 0.00 0.00 0.00 39 1011.2
20260902214055 100 207 1.0 4.0 0.00 0.00 0.00 38 1011.2
20260902213554 100 169 0.0 3.0 0.00 0.00 0.00 40 1011.3
20260902213102 100 0 1.0 3.0 0.00 0.00 0.00 39 1011.4
20260902212555 100 288 0.0 6.0 0.00 0.00 0.00 39 1011.4
20260902212055 101 254 1.0 6.0 0.00 0.00 0.00 37 1011.5
20260902211604 102 213 1.0 4.0 0.00 0.00 0.00 37 1011.4
20260902211054 102 169 0.0 4.0 0.00 0.00 0.00 37 1011.5
20260902210558 101 0 0.0 4.0 0.00 0.00 0.00 38 1011.4
20260902210058 103 194 0.0 3.0 0.00 0.00 0.00 37 1011.5